Powrót do katalogu

STARLINK-3661

AktywnyŁącznośćVLEO
NORAD 52129·PAYLOAD·🇺🇸 United States

Wystrzelony Mar 19, 2022 z Cape Canaveral Space Force Station

Loading…

Następne Przeloty (najbliższe 24 godziny)

TLE

ŚwieżeSource: CelesTrak SupGP

Epoka: Sep 14, 2026, 21:18 UTC

1 52129C 22029AT  26257.88798611  .00008893  00000+0  48914-3 0  2577
2 52129  53.1605 297.9038 0001595  71.4533   3.9528 15.13561555    17

Śledź STARLINK-3661 w czasie rzeczywistym z AllMySat

Download on the App Store